FENGYUN 1C DEB, 30313

Orbit data source: Space-Track

FENGYUN 1C DEB, 30313 is space debris in SSO originally from a launch on Mon, 10 May 1999 UTC launched from the Taiyaun Space Center, China (TSC). Fengyun 1C debris stems from the Chinese weather satellite Fengyun-1C, which was intentionally destroyed by a Chinese anti-satellite missile in 2007. This event dramatically increased the amount of space debris, with thousands of trackable fragments posing hazards to satellites and human spaceflight. The Fengyun 1C debris cloud has become a focal point in discussions about space sustainability and the need for international regulations to prevent the creation of new debris.

Loading next visibility...
Identifier
30313, 1999-025AAA
Orbit
SSO
Country
Flag of CNCN / PRC
Related business
Manufacturer
Unknown
Mission
Spacecraft
Bus & Motor
Unknown
Mass
Unknown
Launch date (UTC)
1999-05-10 (26 years ago)
Launch vehicle
Unknown
Launch site
Taiyaun Space Center, China (TSC)
Object type
Payload
Rocket body
Debris
Shape & HBR
Unknown
Radar Cross Section
Small (<0.1 m²)

Expand to show TLE details & history
Last TLE update: 17 hours ago

TLE from 17 hours ago
0 FENGYUN 1C DEB
1 30313U 99025AAA 25260.18982352  .00003335  00000-0  14360-2 0  9998
2 30313  98.8777 345.3981 0059660 224.8346 164.8469 14.24328252958571
Epoch: 2025-09-17T04:33Z
TLE epoch observation values (Epoch: 2025-09-17T04:33:20.752Z)
Latitude
29.51512°
Longitude
-84.354°
Altitude
855.846 km
Speed
7.406 km/s
True Right ascension
22h 41m 24s
True Declination
29° 22' 12"
Sunlit
Object was in full shadow at epoch
Visualization orbit readout
Latitude
Unknown
Longitude
Unknown
Altitude
Unknown
Speed
Unknown
Apparent Right ascension
Unknown
Apparent Declination
Unknown
Sunlit
N/A
Visualization observer readout
Local Sidereal Time
14:11:04
Azimuth
Unknown
Elevation
Unknown
Doppler factor
Unknown
Orbital elements
Apogee altitude
850.785 km
Perigee altitude
765.041 km
Semi-major axis
7,186.05 km
Eccentricity
0.00597
Inclination
98.8777°
RAAN
345.3981°
Arg. of periapsis
224.8346°
True anomaly
165.02433°
Mean anomaly
164.8469°
Eccentric anomaly
164.93574°
Mean motion
3.56293 °/min
Orbital period
101.04 mins
BSTAR
0.001436
Loading maneuver chart data...
Computing Atmospheric mass density...
Loading historical data...
Loading historical data...
Loading historical data...
Loading historical data...
Loading historical data...
Loading historical data...
Loading historical data...

Documentation

Showing up to 5 results
|